Meath Environmental Platform

Observations for Trim Patrick St

Time AQI Temp °C Hum % Pres Pa CO μg/m³ H₂S μg/m³ NO μg/m³ NO₂ μg/m³ O₃ μg/m³ SO₂ μg/m³ PM1 μg/m³ PM2.5 μg/m³ PM10 μg/m³
Wednesday 26 August 2026
23:26 3 16.2 83 38,460 0.15 5.49 1.39 23.59 34.42 0 22.57 32.73 33.7
23:25 3 16.2 83 38,460 0.15 5.44 1.37 25.49 33.59 0 25.14 34.13 36.41
23:24 3 16.2 83 38,460 0.15 4.97 1.42 23.25 35.67 0 22.57 34.16 35.81
23:23 3 16.2 83 38,460 0.15 6.02 1.43 23.77 37.12 0 22.57 32.07 35.11
23:22 3 16.2 83 38,460 0.15 6.49 1.48 26.4 34.15 0 24.29 32.76 35.77
23:21 3 16.2 83 38,460 0.15 5.81 1.44 25.23 33.69 0 24.29 34.84 37.11
23:20 3 16.2 83 38,460 0.15 5.39 1.53 23.74 37.87 0 21.72 34.16 36.48
23:19 3 16.2 83 38,460 0.14 5.23 1.5 24.26 36.32 0 22.57 32.07 33.1
23:17 3 16.3 83 38,460 0.14 6.17 1.45 25.12 35.52 0 23.43 32.77 33.8
23:16 3 16.3 83 38,460 0.14 6.17 1.6 24.88 36.76 0 22.57 32.08 33.8
23:15 3 16.3 83 38,460 0.14 5.86 1.59 25.36 34.51 0 23.43 31.39 33.8
23:13 3 16.3 83 38,460 0.14 6.33 1.43 24.12 38.57 0 20.86 30.71 32.49
23:12 3 16.3 83 38,460 0.14 6.3 1.47 25.56 36.67 0 24.29 34.18 35.85
23:11 3 16.3 83 38,460 0.13 6.56 1.38 24.09 37.55 0 23.43 33.5 35.89
23:10 3 16.3 83 38,460 0.14 6.67 1.39 27 36.47 0 24.29 35.56 37.19
23:09 3 16.3 83 38,460 0.13 6.09 1.56 23.82 39.76 0 22.57 34.21 36.6
23:08 3 16.4 83 38,460 0.14 6.02 1.52 24.48 41.09 0 25.14 34.21 36.6
23:07 3 16.4 83 38,460 0.13 6.67 1.52 24.48 41.89 0 23.43 32.82 35.92
23:06 3 16.4 83 38,460 0.14 7.01 1.37 26.1 36.62 0 24.29 34.92 37.31
23:05 3 16.4 83 38,460 0.14 7.43 1.39 28.77 37.29 0 27.72 39.08 43.36